This is the latest recevied weather packets stored in our database for station/object KF0WJA. If no packets are shown the sender has not sent any weather packets the latest 10 day(s).
| Time | Temp. | Humidity | Pressure | Rain* | Wind** | Luminosity | Snow |
|---|---|---|---|---|---|---|---|
| 1787489947 | 21.67° C | 84% | 1021.9 hPa | 0 mm | - | 93 W/m² | - |
| 1787489642 | 21.67° C | 85% | 1021.8 hPa | 0 mm | - | 88 W/m² | - |
| 1787489339 | 21.11° C | 86% | 1021.8 hPa | 0 mm | - | 85 W/m² | - |
| 1787489034 | 20.56° C | 88% | 1021.9 hPa | 0 mm | - | 75 W/m² | - |
| 1787488730 | 20° C | 89% | 1021.6 hPa | 0 mm | - | 68 W/m² | - |
| 1787488427 | 20° C | 91% | 1021.7 hPa | 0 mm | - | 62 W/m² | - |
| 1787488124 | 19.44° C | 91% | 1021.8 hPa | 0 mm | - | 55 W/m² | - |
| 1787487824 | 19.44° C | 92% | 1021.6 hPa | 0 mm | - | 46 W/m² | - |
| 1787487521 | 18.89° C | 93% | 1021.7 hPa | 0 mm | - | 40 W/m² | - |
| 1787487217 | 18.89° C | 93% | 1021.6 hPa | 0 mm | - | 31 W/m² | - |
| 1787486912 | 18.33° C | 94% | 1021.6 hPa | 0 mm | - | 23 W/m² | - |
| 1787486607 | 18.33° C | 94% | 1021.7 hPa | 0 mm | - | 16 W/m² | - |
| 1787486306 | 18.33° C | 94% | 1021.8 hPa | 0 mm | - | 11 W/m² | - |
| 1787486001 | 18.33° C | 94% | 1021.7 hPa | 0 mm | - | 6 W/m² | - |
| 1787485698 | 18.33° C | 94% | 1021.5 hPa | 0 mm | - | 4 W/m² | - |
| 1787485393 | 18.33° C | 94% | 1021.6 hPa | 0 mm | - | 0 W/m² | - |
| 1787485088 | 18.33° C | 94% | 1021.5 hPa | 0 mm | - | 0 W/m² | - |
| 1787484785 | 18.33° C | 94% | 1021.5 hPa | 0 mm | - | 0 W/m² | - |
| 1787484481 | 18.33° C | 94% | 1021.3 hPa | 0 mm | - | 0 W/m² | - |
| 1787484176 | 18.33° C | 94% | 1021.3 hPa | 0 mm | - | 0 W/m² | - |
| 1787483871 | 18.33° C | 94% | 1021.5 hPa | 0 mm | - | 0 W/m² | - |
| 1787483568 | 18.33° C | 94% | 1021.5 hPa | 0 mm | - | 0 W/m² | - |
| 1787483264 | 18.33° C | 94% | 1021.5 hPa | 0 mm | - | 0 W/m² | - |
| 1787482961 | 18.33° C | 94% | 1021.5 hPa | 0 mm | - | 0 W/m² | - |
| 1787482656 | 18.33° C | 94% | 1021.5 hPa | 0 mm | - | 0 W/m² | - |
* Rain latest hour (hover to see other rain measurements)
** Current wind speed in m/s (hover to see current wind gust speed)